Location: Leeds
(37.2390°N, 113.3580°W)
Time: 13:52:15
(UTC-06:00)

Daily predictions for brighter satellites

Satellite Brightness Start Highest point End
(mag) Time Altitude Azimuth Time Altitude Azimuth Time Altitude Azimuth
NOSS 3-2 (C) 3.4 21:01:05 10° SSW 21:06:51 73° ESE 21:13:13 10° NE
Cosmos 1743 4.0 21:06:41 10° NNE 21:09:52 24° ENE 21:13:01 10° SE
ATLAS CENTAUR R/B 2.5 21:08:20 10° NW 21:12:48 49° WSW 21:17:27 10° S
Cosmos 1898 Rocket 4.0 21:16:56 10° N 21:22:04 47° ENE 21:27:10 10° SE
CENTAUR R/B 2.8 21:17:35 10° S 21:22:56 40° ESE 21:28:58 10° NE
Cosmos 1814 Rocket 4.4 21:18:27 10° S 21:23:20 41° ESE 21:28:18 10° NNE
Okean 1 3.4 21:20:46 10° S 21:24:48 85° W 21:28:53 10° N
Cosmos 2233 Rocket 4.0 21:21:43 10° S 21:27:46 64° E 21:33:52 10° NNE
Resurs 01 Rocket 1.6 21:23:55 10° SSE 21:28:17 72° ENE 21:32:41 10° N
Envisat 4.3 21:27:20 10° SSW 21:32:06 41° W 21:36:54 10° NNW
Aureole 2 Rocket 4.3 21:31:31 10° NE 21:32:35 12° ENE 21:33:38 10° E
H-2A R/B 3.5 21:29:05 10° ESE 21:32:40 21° ENE 21:36:20 10° NNE
Lacrosse 5 rocket 3.6 21:31:22 10° N 21:34:07 16° NNE 21:36:46 10° ENE
Cosmos 2208 Rocket 4.4 21:29:37 10° SSW 21:34:46 67° WNW 21:39:56 10° NNE
Meteor 2-4 Rocket 4.2 21:30:03 10° SSE 21:34:58 37° E 21:40:02 10° NNE
ATLAS 3B R/B 4.3 21:31:29 10° WSW 21:38:11 41° NW 21:44:40 10° NNE
Cosmos 1939 Rocket 3.5 21:34:53 10° S 21:38:55 60° W 21:43:02 10° NNW
ARGOS 4.0 21:37:57 12° SE 21:42:14 34° ENE 21:47:04 10° N
YAOGAN 6 4.0 21:41:16 10° SSW 21:44:44 38° W 21:48:12 10° NNW
Cosmos 1242 Rocket 2.5 21:42:30 10° N 21:46:07 67° E 21:49:12 13° SSE
NOAA 11 4.2 21:40:54 10° SSE 21:46:22 82° ENE 21:51:50 10° N
Cosmos 2322 Rocket 2.2 21:43:38 10° NNW 21:49:14 68° ENE 21:53:53 15° SSE
Centaur D-1AR AC-36 4.3 12:38:47 10° SSW 21:53:06 37° SSW 21:59:00 17° SE
Cosmos 1340 Rocket 3.2 21:54:00 14° SSE 21:57:14 44° E 22:01:07 10° NNE
GPS 2-05 Rocket1 3.6 21:55:14 10° SW 21:58:11 30° SSE 21:59:08 25° SE
SL-16 R/B 2.2 21:53:47 10° NNW 21:59:29 88° ENE 22:04:05 16° SSE
Cosmos 2150 Rocket 4.3 21:57:45 10° N 22:03:01 55° ENE 22:06:25 21° SE
OAO 1 Rocket 4.4 22:00:39 10° W 22:05:57 70° S 22:09:47 19° ESE
EPKM 4.0 22:02:52 10° WSW 22:06:02 15° SSW 22:07:01 14° S
Cosmos 540 Rocket 3.8 22:02:22 11° S 22:07:03 44° ESE 22:11:57 10° NNE
MetOp-B 4.5 22:05:17 20° SE 22:08:43 50° ENE 22:13:53 10° N
Spot 2 Rocket 4.0 22:05:38 10° S 22:10:34 57° W 22:15:33 10° NNW
Meteor 1-13 Rocket 4.5 22:10:27 10° SSW 22:16:20 79° W 22:22:20 10° N
USA 245 4.2 22:16:00 27° E 22:17:03 32° ENE 22:20:54 10° N
Cosmos 2034 Rocket 4.3 22:14:00 20° SSE 22:17:59 47° E 22:23:50 10° NNE
Cosmos 1937 Rocket 3.6 22:13:02 10° NNW 22:18:10 73° WSW 22:21:45 20° S
Cosmos 1763 Rocket 4.3 22:13:01 10° SSW 22:18:13 54° WNW 22:23:24 10° N
SPOT 5 4.0 22:17:09 21° E 22:18:34 25° ENE 22:22:17 10° NNE
Terra 3.8 22:17:13 12° E 22:18:37 14° ENE 22:20:57 10° NE
Cosmos 1455 Rocket 3.0 22:14:50 10° N 22:19:12 71° E 22:21:29 27° SSE
Cosmos 1464 Rocket 4.0 22:14:37 11° S 22:20:40 71° E 22:27:01 10° NNE
Cosmos 2298 Rocket 4.0 22:19:00 10° NNW 22:24:19 83° WSW 22:27:31 25° SSE
Cosmos 841 Rocket 3.8 22:19:35 10° SSW 22:24:47 69° WNW 22:30:04 10° NNE
Okean 2 4.1 22:28:18 33° ESE 22:28:46 34° E 22:32:33 10° NNE
Helios 1A 3.9 22:28:06 29° E 22:29:02 32° ENE 22:32:46 10° N
Tiangong 2 3.0 22:27:36 10° WNW 22:30:23 28° N 22:32:27 15° NE
Shenzhou-11 Module 2.1 22:29:24 10° WNW 22:32:21 64° NNE 22:32:39 58° ENE
DELTA 2 R/B (1) 4.0 22:27:19 10° SW 22:32:23 38° SSE 22:34:19 29° ESE
Meteor 1-15 Rocket 4.4 22:27:08 10° N 22:32:43 53° ENE 22:35:05 32° SE
USA 32 4.1 22:31:22 10° N 22:36:37 76° W 22:39:57 23° S
Cosmos 2360 Rocket 2.2 22:32:37 10° NNW 22:38:17 75° ENE 22:40:45 35° SE
Cosmos 1891 Rocket 4.4 22:33:29 16° S 22:38:39 87° E 22:45:01 10° N
Cosmos 2219 Rocket 3.7 22:37:01 10° N 22:41:22 23° ENE 22:43:21 19° E
Cosmos 1356 Rocket 3.9 22:41:27 40° ESE 22:41:39 40° E 22:45:41 10° NNE
Atlas Centaur 2 3.5 22:40:36 10° SW 22:41:23 12° SW 22:41:23 12° SW
Cosmos 1544 Rocket 4.2 22:42:20 10° NNW 22:46:40 54° W 22:48:54 26° SSW
USA 234 4.0 22:40:22 10° NE 22:46:43 54° NW 22:53:04 10° WSW
ERS-1 Rocket 2.9 22:47:42 38° SSE 22:49:43 87° W 22:54:46 10° NNW
Helios 1B rocket 2.6 22:51:42 10° NNE 22:55:37 52° E 22:55:37 52° E
SJ 16-02 1.3 22:52:18 10° NNW 22:56:46 76° ENE 22:57:27 61° SE
CZ-2C R/B 4.3 22:57:12 26° E 22:58:21 28° ENE 23:03:03 10° N
Cosmos 1536 Rocket 4.4 22:58:59 22° SW 23:01:32 49° W 23:05:53 10° N
Okean 1-7 Rocket 4.3 23:04:33 38° ENE 23:04:33 38° ENE 23:08:22 10° NNE
IGS 5A 4.1 23:05:00 42° ENE 23:05:00 42° ENE 23:08:50 10° N
Meteor 1-29 4.3 23:02:55 10° NNE 23:05:00 31° NE 23:05:00 31° NE
Aureole 2 Rocket 4.3 23:05:17 10° NW 23:07:03 18° W 23:07:03 18° W
SPOT 1/Viking Rocket 3.4 23:06:57 53° SSE 23:08:12 83° ENE 23:13:23 10° NNW
Cosmos 2333 Rocket 3.2 23:03:13 10° N 23:08:21 33° ENE 23:09:41 30° E
COSMOS 2428 2.9 23:05:51 10° NNW 23:11:26 56° ENE 23:12:38 47° ESE
H-2A R/B 2.9 23:09:40 27° SSW 23:11:46 41° W 23:16:31 10° NNW
CENTAUR R/B 4.1 23:08:10 10° WSW 23:13:36 34° NW 23:19:46 10° NNE
Lacrosse 5 rocket 1.3 23:09:37 10° NW 23:13:45 80° W 23:13:45 80° W
Cosmos 783 Rocket 4.4 23:14:12 60° SSE 23:14:59 70° ESE 23:20:16 10° NNE
Cosmos 1125 Rocket 3.4 23:12:12 10° NNW 23:17:28 88° WSW 23:18:20 63° SSE
CZ-4C R/B 3.2 23:10:38 10° NNW 23:17:52 60° NE 23:20:58 38° ESE
Cosmos 2297 Rocket 3.6 23:26:09 24° ENE 23:26:09 24° ENE 23:29:19 10° NE
Cosmos 2227 Rocket 3.2 23:29:30 30° ENE 23:29:30 30° ENE 23:33:14 10° NE
Cosmos 1092 Rocket 3.9 23:22:44 10° N 23:29:08 82° E 23:30:34 56° SSE
Nadezhda 4 Rocket 4.2 23:24:16 10° NNW 23:30:32 66° W 23:32:41 42° SSW
CARTOSAT-1 3.6 23:33:20 76° NNW 23:33:20 76° NNW 23:37:20 10° NNW
Cosmos 2322 4.2 23:28:11 10° NNW 23:33:43 51° WSW 23:34:53 44° SW
Landsat 7 4.0 23:36:45 59° WSW 23:37:02 61° W 23:41:45 10° NNW
Cosmos 2237 Rocket 3.3 23:32:27 10° N 23:37:30 32° ENE 23:38:17 30° ENE
Cosmos 1025 Rocket 4.1 23:41:10 36° WSW 23:41:51 38° WNW 23:45:57 10° N
Cosmos 1066 Rocket 4.5 23:40:29 45° SW 23:41:52 59° WNW 23:47:14 10° N
NOSS 0 Rocket 4.2 23:39:43 10° NNW 23:45:50 54° ENE 23:46:41 50° E
Cosmos 1606 Rocket 4.0 23:49:45 10° N 23:53:25 60° NNW 23:53:25 60° NNW
